[[{"header":{"parameterUnit":"m.s-1","parameterCategory":1,"la1":30.2991,"la2":30.254,"lo1":-89.0895,"lo2":-89.0444,"dy":0.0017,"dx":0.0017,"nx":28,"ny":28,"refTime":"2024-12-24T09:00:00:Z","depth":0,"parameterNumber":2,"parameterNumberName":"U-component_of_WINDS"},"data":[0,0,0,0,0,0,0,0,0,0,0,0,0,0,0,0,0,0,0,0,0,0,0,0,0,0,0,0,0,0,0,0,0,0,0,0,0,0,0,0,0,0,0,0,0,0,0,0,0,0,0,0,0,0,0,0,0,0,-5.4052,-5.4052,0,-5.4127,-5.4128,-5.4129,-5.3975,-5.397,-5.3965,-5.396,-5.4039,-5.4045,-5.4052,0,0,0,0,0,0,0,0,0,0,0,0,0,-5.3775,-5.378,-5.4052,-5.4053,-5.4054,-5.4127,-5.4128,-5.4129,-5.3976,-5.3969,-5.3963,-5.3957,-5.4037,-5.4045,-5.4053,0,0,0,0,0,0,0,0,0,0,0,0,0,-5.3877,-5.3782,-5.4051,-5.3986,-5.398,-5.4127,-5.4128,-5.413,-5.3977,-5.3969,-5.3962,-5.3955,-5.4034,-5.4044,-5.4054,-5.4268,0,0,-5.4085,-5.4089,0,0,0,0,0,0,0,0,-5.3872,-5.3888,-5.3994,-5.399,-5.3985,-5.4034,-5.4059,-5.4176,-5.3979,-5.3978,-5.396,-5.3951,-5.4043,-5.4052,-5.4083,-5.4272,-5.4275,-5.4086,-5.4092,-5.4096,-5.4099,0,0,0,0,0,0,0,-5.3865,-5.3883,-5.4081,-5.3996,-5.399,-5.3953,-5.3959,-5.4081,-5.4052,-5.3978,-5.3967,-5.3978,-5.4039,-5.4074,-5.4084,-5.4276,-5.4086,-5.4095,-5.4101,-5.4105,-5.4643,-5.4651,0,0,0,0,0,0,-5.3866,-5.3879,-5.4079,-5.4084,-5.3908,-5.3964,-5.3971,-5.4026,-5.4051,-5.4047,-5.3984,-5.397,-5.406,-5.4072,-5.4086,-5.4336,-5.4096,-5.4106,-5.4112,-5.4635,-5.4645,-5.4654,0,0,0,0,0,0,-5.386,-5.3885,-5.4076,-5.3978,-5.4,-5.3976,-5.404,-5.4031,-5.4065,-5.4055,-5.405,-5.4024,-5.4054,-5.4072,-5.4223,-5.4337,-5.4111,-5.412,-5.4625,-5.4638,-5.4649,-5.4841,0,0,0,0,0,0,-5.3853,-5.3884,-5.3965,-5.3981,-5.4005,-5.4213,-5.4047,-5.4038,-5.4083,-5.4066,-5.4092,-5.4089,-5.405,-5.4209,-5.4234,-5.4347,-5.4128,-5.4615,-5.4631,-5.4646,-5.4824,-5.4858,-5.4887,0,0,0,0,0,-5.3844,-5.4017,-5.397,-5.3995,-5.4106,-5.4219,-5.4233,-5.4185,-5.4093,-5.4174,-5.4168,-5.4088,-5.4322,-5.4226,-5.4252,-5.4371,-5.4608,-5.4627,-5.4644,-5.481,-5.4852,-5.4887,0,0,0,0,0,0,-5.4015,-5.4018,-5.3966,-5.4149,-5.4185,-5.4193,-5.4294,-5.423,-5.4294,-5.4275,-5.4212,-5.4219,-5.4383,-5.4392,-5.4286,-5.4579,-5.4449,-5.4474,-5.4566,-5.4605,-5.4636,-5.4629,-5.4136,0,0,0,0,0,-5.4074,-5.4166,-5.4163,-5.4325,-5.4346,-5.4318,-5.4365,-5.4324,-5.4359,-5.4374,-5.4378,-5.4416,-5.4497,-5.4552,-5.4627,-5.4826,-5.4828,-5.492,-5.4952,-5.4978,-5.4999,-5.5103,-5.5143,-5.4714,-5.4714,-5.4714,0,0,-5.4197,-5.421,-5.4271,-5.436,-5.4383,-5.4479,-5.4331,-5.4439,-5.4509,-5.439,-5.4533,-5.4539,-5.4576,-5.4752,-5.483,-5.4765,-5.5118,-5.5001,-5.5022,-5.5029,-5.5126,-5.5167,-5.5203,-5.4727,-5.4724,-5.4722,0,0,-5.4469,-5.4489,-5.4625,-5.4651,-5.4688,-5.4668,-5.4701,-5.4719,-5.4717,-5.486,-5.4772,-5.4856,-5.4998,-5.5027,-5.5061,-5.5346,-5.5274,-5.5372,-5.5536,-5.5638,-5.5672,-5.5701,-5.58,-5.5837,-5.5394,-5.5395,-5.5395,0,-5.4617,-5.4757,-5.4703,-5.4817,-5.4858,-5.4755,-5.4891,-5.492,-5.498,-5.5011,-5.4937,-5.5112,-5.5131,-5.5311,-5.5381,-5.5413,-5.5447,-5.5367,-5.5671,-5.57,-5.5727,-5.5821,-5.5859,-5.5406,-5.5405,-5.5403,-5.5402,0,-5.4936,-5.5036,-5.5141,-5.52,-5.5254,-5.5379,-5.5343,-5.5404,-5.536,-5.5348,-5.5494,-5.5512,-5.5588,-5.5629,-5.5587,-5.5803,-5.5761,-5.5681,-5.5549,-5.578,-5.5867,-5.5903,-5.5422,-5.5418,-5.5415,-5.5412,0,0,-5.5316,-5.5344,-5.5384,-5.5409,-5.5442,-5.5518,-5.5639,-5.5712,-5.5764,-5.581,-5.5908,-5.6032,-5.5957,-5.5996,-5.5956,-5.6047,-5.6268,-5.5954,-5.5954,-5.601,-5.6506,-5.6564,-5.6606,-5.6222,-5.6229,-5.6234,-5.6501,0,-5.5584,-5.579,-5.5745,-5.5947,-5.6037,-5.5941,-5.6046,-5.6078,-5.6071,-5.6146,-5.6138,-5.6225,-5.6121,-5.6144,-5.6229,-5.6223,-5.6366,-5.6204,-5.6312,-5.6316,-5.6302,-5.6652,-5.6714,-5.6965,-5.6535,-5.6541,-5.6545,0,-5.5923,-5.598,-5.6191,-5.6209,-5.6245,-5.634,-5.6403,-5.6477,-5.6512,-5.65,-5.6544,-5.6487,-5.6606,-5.6476,-5.6638,-5.6529,-5.6571,-5.6575,-5.6583,-5.6589,-5.6443,-5.6665,-5.7045,-5.7081,-5.6599,-5.6595,-5.6591,0,-5.6175,-5.6306,-5.6448,-5.6473,-5.6499,-5.6567,-5.6581,-5.6608,-5.6655,-5.6711,-5.674,-5.6811,-5.6848,-5.6904,-5.6867,-5.6776,-5.7036,-5.6902,-5.7028,-5.7029,-5.7084,-5.7081,-5.7474,-5.7117,-5.7117,-5.7116,-5.7115,0,-5.6477,-5.6609,-5.6562,-5.6649,-5.6795,-5.6743,-5.6888,-5.6891,-5.6916,-5.7002,-5.6925,-5.7008,-5.6956,-5.7035,-5.7008,-5.7146,-5.7164,-5.7157,-5.7148,-5.7162,-5.7163,-5.7187,-5.7167,-5.7126,-5.7124,-5.7122,-5.712,0,-5.6782,-5.6756,-5.6904,-5.6916,-5.6923,-5.7029,-5.7039,-5.7121,-5.7108,-5.7218,-5.7241,-5.7221,-5.731,-5.728,-5.7376,-5.7357,-5.7531,-5.7501,-5.752,-5.7511,-5.7637,-5.7624,-5.8056,-5.8109,-5.7722,-5.7726,-5.7729,0,-5.6974,-5.7074,-5.7096,-5.7148,-5.7167,-5.7253,-5.73,-5.7253,-5.7305,-5.7352,-5.7428,-5.751,-5.7572,-5.7719,-5.7713,-5.7785,-5.7754,-5.7901,-5.7764,-5.7775,-5.7753,-5.7746,-5.7755,-5.7927,-5.7931,-5.7935,-5.7938,0,-5.7318,-5.73,-5.737,-5.7438,-5.7496,-5.7547,-5.759,-5.7637,-5.7593,-5.7656,-5.7745,-5.7794,-5.7891,-5.7973,-5.8038,-5.8052,-5.7988,-5.7981,-5.8013,-5.8028,-5.8033,-5.8029,-5.759,-5.7971,-5.7967,-5.7965,-5.7963,-5.7962,-5.757,-5.7654,-5.7682,-5.7763,-5.7791,-5.7834,-5.791,-5.7907,-5.7981,-5.8055,-5.8024,-5.8127,-5.8158,-5.8239,-5.8263,-5.8342,-5.8286,-5.8333,-5.8345,-5.8356,-5.8371,-5.8024,-5.8355,-5.8354,-5.8353,-5.8352,-5.8351,0,-5.7907,-5.7921,-5.7996,-5.8059,-5.8123,-5.8058,-5.8103,-5.8161,-5.8252,-5.8287,-5.835,-5.8452,-5.8531,-5.8532,-5.8606,-5.8669,-5.8641,-5.869,-5.8683,-5.8687,-5.8419,-5.8382,-5.8711,-5.8711,-5.8711,-5.8711,-5.8711,-5.8711,-5.809,-5.8226,-5.8212,-5.8362,-5.8375,-5.8474,-5.8505,-5.8544,-5.8571,-5.8689,-5.8754,-5.8754,-5.8775,-5.8849,-5.8919,-5.8917,-5.8947,-5.9006,-5.8993,-5.8742,-5.8706,-5.8672,-5.8637,-5.9013,-5.9014,-5.9253,-5.9256,-5.9257]},{"header":{"parameterUnit":"m.s-1","parameterCategory":1,"la1":30.2991,"la2":30.254,"lo1":-89.0895,"lo2":-89.0444,"dy":0.0017,"dx":0.0017,"nx":28,"ny":28,"refTime":"2024-12-24T09:00:00:Z","depth":0,"parameterNumber":3,"parameterNumberName":"V-component_of_WINDS"},"data":[0,0,0,0,0,0,0,0,0,0,0,0,0,0,0,0,0,0,0,0,0,0,0,0,0,0,0,0,0,0,0,0,0,0,0,0,0,0,0,0,0,0,0,0,0,0,0,0,0,0,0,0,0,0,0,0,0,0,0.8562,0.8562,0,0.8622,0.8623,0.8623,0.865,0.8649,0.8649,0.8649,0.8707,0.8709,0.8711,0,0,0,0,0,0,0,0,0,0,0,0,0,0.8467,0.8468,0.8562,0.8562,0.8563,0.8622,0.8623,0.8623,0.865,0.8649,0.8649,0.8649,0.8707,0.8709,0.8711,0,0,0,0,0,0,0,0,0,0,0,0,0,0.8515,0.8469,0.8561,0.8583,0.8586,0.8622,0.8623,0.8624,0.865,0.8649,0.8649,0.8649,0.8706,0.8709,0.8711,0.8728,0,0,0.8718,0.8719,0,0,0,0,0,0,0,0,0.8513,0.8519,0.8579,0.8582,0.8585,0.8628,0.861,0.8659,0.865,0.8625,0.8649,0.8649,0.8681,0.8685,0.8697,0.8731,0.8734,0.8719,0.872,0.8721,0.8722,0,0,0,0,0,0,0,0.8509,0.8516,0.8585,0.858,0.8584,0.8589,0.8596,0.862,0.8653,0.8627,0.8629,0.8636,0.8682,0.8694,0.8698,0.8734,0.8719,0.8721,0.8722,0.8723,0.8786,0.8786,0,0,0,0,0,0,0.8503,0.8513,0.8583,0.8587,0.8548,0.8591,0.8599,0.8614,0.8653,0.8659,0.8636,0.8637,0.869,0.8696,0.8701,0.8724,0.8721,0.8723,0.8725,0.8786,0.8786,0.8787,0,0,0,0,0,0,0.85,0.8509,0.8581,0.8551,0.8561,0.8593,0.861,0.8616,0.8628,0.866,0.8665,0.8643,0.869,0.8697,0.8722,0.8726,0.8725,0.8727,0.8786,0.8786,0.8786,0.877,0,0,0,0,0,0,0.8498,0.8508,0.8515,0.8551,0.8562,0.8602,0.861,0.8617,0.8632,0.8634,0.8667,0.8673,0.8691,0.8718,0.8724,0.8729,0.8729,0.8785,0.8786,0.8786,0.877,0.877,0.8769,0,0,0,0,0,0.8494,0.8507,0.8515,0.8524,0.8572,0.8602,0.8608,0.863,0.8633,0.864,0.8661,0.8671,0.8725,0.872,0.8727,0.8733,0.8785,0.8786,0.8786,0.877,0.877,0.8769,0,0,0,0,0,0,0.847,0.8512,0.8522,0.8547,0.8571,0.8606,0.8617,0.8629,0.8651,0.8652,0.8677,0.8684,0.8707,0.8723,0.8717,0.8752,0.8756,0.8758,0.8741,0.8741,0.8741,0.8736,0.8731,0,0,0,0,0,0.8468,0.8489,0.8525,0.8544,0.8555,0.8584,0.8597,0.8613,0.8638,0.8648,0.867,0.8693,0.8715,0.8729,0.8751,0.8773,0.878,0.8781,0.878,0.8779,0.8781,0.8794,0.8794,0.8788,0.8788,0.8788,0,0,0.8463,0.8489,0.85,0.8539,0.856,0.8581,0.8592,0.8614,0.8629,0.865,0.8675,0.8693,0.872,0.8743,0.8755,0.8757,0.8784,0.878,0.8779,0.8781,0.8794,0.8795,0.8795,0.8788,0.8788,0.8788,0,0,0.8465,0.8487,0.8505,0.8526,0.8557,0.8576,0.858,0.8614,0.8627,0.8653,0.8669,0.8688,0.8725,0.8744,0.8759,0.8769,0.878,0.8775,0.8772,0.8785,0.8785,0.8786,0.879,0.8791,0.8776,0.8776,0.8776,0,0.8455,0.8488,0.8513,0.8534,0.8551,0.8572,0.8591,0.8609,0.8645,0.8655,0.8658,0.8706,0.8726,0.8754,0.8757,0.8768,0.8773,0.8771,0.8783,0.8784,0.8785,0.8789,0.879,0.8776,0.8776,0.8776,0.8776,0,0.8474,0.8497,0.8508,0.8544,0.8562,0.8581,0.8608,0.8623,0.8637,0.8655,0.8681,0.8706,0.8734,0.8741,0.8754,0.8772,0.8772,0.8779,0.8783,0.8785,0.8789,0.879,0.8775,0.8775,0.8775,0.8775,0,0,0.8462,0.8512,0.8516,0.8533,0.8569,0.8587,0.8607,0.8636,0.8648,0.8672,0.8689,0.8721,0.8728,0.8744,0.8759,0.877,0.8777,0.8776,0.8777,0.8775,0.8798,0.8793,0.8794,0.8785,0.8785,0.8785,0.8796,0,0.8469,0.8508,0.8531,0.856,0.8582,0.8603,0.8621,0.8645,0.8663,0.8683,0.8702,0.8724,0.8731,0.8742,0.8753,0.8774,0.8782,0.8773,0.88,0.8801,0.8793,0.8796,0.8791,0.8799,0.8797,0.8798,0.8798,0,0.8482,0.8508,0.854,0.8574,0.8584,0.86,0.8628,0.8647,0.8675,0.8687,0.8706,0.8721,0.8743,0.8746,0.8776,0.8769,0.8782,0.8793,0.8794,0.8798,0.88,0.8799,0.8803,0.8804,0.8801,0.88,0.88,0,0.8471,0.8513,0.8537,0.8551,0.8592,0.8603,0.862,0.8647,0.8663,0.8687,0.8698,0.8724,0.8738,0.8757,0.8779,0.8779,0.8807,0.8811,0.8817,0.8816,0.8822,0.8821,0.8827,0.883,0.883,0.883,0.883,0,0.8476,0.8495,0.8533,0.8548,0.8569,0.8595,0.8616,0.8634,0.8659,0.8677,0.8696,0.8713,0.8741,0.8761,0.8778,0.8801,0.8807,0.8817,0.8821,0.8815,0.8814,0.8823,0.8823,0.883,0.883,0.883,0.883,0,0.8466,0.8493,0.8521,0.8558,0.8568,0.8582,0.8613,0.8628,0.8648,0.8671,0.8678,0.8708,0.8732,0.8756,0.8789,0.88,0.8822,0.8828,0.8814,0.8816,0.8821,0.882,0.8833,0.8836,0.8837,0.8837,0.8837,0,0.8468,0.8483,0.8522,0.8537,0.8554,0.8577,0.8594,0.862,0.8636,0.8669,0.868,0.8707,0.8729,0.8767,0.8791,0.8816,0.8823,0.8826,0.8826,0.882,0.8823,0.8822,0.8823,0.8825,0.8825,0.8824,0.8824,0,0.8469,0.8481,0.8505,0.8534,0.8554,0.8577,0.8601,0.8612,0.8642,0.866,0.8686,0.8704,0.8738,0.8764,0.8792,0.8808,0.8821,0.8824,0.8827,0.8821,0.8812,0.8817,0.8812,0.8824,0.8824,0.8824,0.8824,0.8824,0.8465,0.8479,0.851,0.8536,0.8557,0.8579,0.8596,0.8618,0.8641,0.8671,0.8685,0.8711,0.8738,0.8778,0.8794,0.8815,0.8818,0.8822,0.8823,0.8823,0.8822,0.8809,0.882,0.882,0.882,0.882,0.882,0,0.8466,0.8487,0.8511,0.8545,0.8565,0.8578,0.8605,0.8621,0.8644,0.8669,0.8692,0.8722,0.8747,0.8773,0.88,0.8811,0.8818,0.8817,0.8817,0.882,0.8818,0.8813,0.8812,0.8812,0.8812,0.8812,0.8812,0.8812,0.8469,0.8495,0.8511,0.8548,0.8568,0.8595,0.861,0.863,0.865,0.8684,0.8705,0.8723,0.8748,0.8777,0.8801,0.8808,0.8816,0.8814,0.8823,0.882,0.882,0.8821,0.8816,0.8816,0.8816,0.8824,0.8824,0.8824]}]]